EHI
0 0 0 0 0 0 0 0 0 0 0 0 0 0 0 0 0 0 0 0 0 0 0 1 1 1 0 0 0 0 0 0 0 0 0 0 0 0 0 0 0 0 0
0 0 0 0 0 0 0 0 0 0 0 0 0 0 0 0 0 0 0 0 0 0 0 1 1 1 0 0 0 0 0 0 0 0 0 0 0 0 0 0 0 0 0
0 0 0 0 0 0 0 0 0 0 0 0 0 0 0 0 0 0 0 0 0 0 1 1 0 0 0 0 0 1 1 0 0 0 0 0 0 0 0 0 0 0 0
0 0 0 0 0 0 0 0 0 0 0 0 0 0 0 0 0 0 0 0 0 0 1 1 0 0 0 0 1 1 1 1 0 0 0 0 0 0 0 0 0 0 0
0 0 0 0 0 0 0 0 0 0 0 0 0 0 0 0 0 0 0 0 0 0 1 1 0 0 1 1 1 1 1 1 0 0 0 0 0 0 0 0 0 0 0
0 0 0 0 0 0 0 0 0 0 0 0 0 0 0 0 0 0 0 0 0 0 0 0 0 0 0 0 0 0 1 1 0 0 0 0 0 0 0 0 0 0 0
0 0 0 0 0 0 0 0 0 0 0 0 0 0 0 0 0 0 0 0 0 0 0 0 0 0 0 0 0 0 0 0 0 0 0 0 0 0 0 0 0 0 0
0 0 0 0 0 0 0 0 0 0 0 0 0 0 0 0 0 0 0 0 0 0 0 0 0 0 0 0 0 0 0 0 0 0 0 0 0 0 0 0 0 0 0
0 0 0 0 0 0 0 0 0 0 0 0 0 0 0 0 0 0 0 0 0 0 0 0 0 0 0 0 0 0 0 0 0 0 0 0 0 0 0 0 0 0 0
0 0 0 0 0 0 0 0 0 0 0 0 0 0 0 0 0 0 0 0 0 0 0 0 0 0 0 0 0 0 0 0 0 0 0 0 0 0 0 0 0 0 0
0 0 0 0 0 0 0 0 0 0 0 0 0 0 0 0 0 0 0 0 0 0 0 0 0 0 0 0 0 0 0 0 0 0 0 0 0 0 0 0 0 0 0
0 0 0 0 0 0 0 0 0 0 0 0 0 0 0 0 0 0 0 0 0 0 0 0 0 0 0 0 0 0 0 0 0 0 0 0 0 0 0 0 0 0 0
0 0 0 0 0 0 0 0 0 0 0 0 0 0 0 0 0 0 0 0 0 0 0 0 0 0 0 0 0 0 0 0 0 0 0 0 0 0 0 0 0 0 0
0 0 0 0 0 0 0 0 0 0 0 0 0 0 0 0 0 0 0 0 0 0 0 0 0 0 0 0 0 0 0 0 0 0 0 0 0 0 0 0 0 0 0
0 0 0 0 0 0 0 0 0 0 0 0 0 0 0 0 0 0 0 0 0 0 0 0 0 0 0 0 0 0 0 0 0 0 0 0 1 0 0 0 0 0 0
0 0 0 0 0 0 0 0 0 0 0 0 0 0 0 0 0 0 0 0 0 0 0 0 0 0 0 0 0 0 0 0 0 0 0 0 0 0 0 0 0 0 0
0 0 0 0 0 0 0 0 0 0 0 0 0 0 0 0 0 0 0 0 0 0 0 0 0 0 0 0 0 0 0 0 0 0 0 0 0 0 0 0 0 0 0
0 0 0 0 0 0 0 0 0 0 0 0 0 0 0 0 0 0 0 0 0 0 0 0 0 0 0 0 0 0 0 0 0 0 0 0 0 0 0 0 0 0 0
0 0 0 0 0 0 0 0 0 0 0 0 0 0 0 0 0 0 0 0 0 0 0 0 0 0 0 0 0 0 0 0 0 0 0 0 0 0 0 0 0 0 0
0 0 0 0 1 3 4 3 2 1 0 0 0 0 0 0 0 0 0 0 0 0 0 0 0 0 0 0 0 0 0 0 0 0 0 0 0 0 0 0 0 0 0
1 0 0 1 5 12 16 14 11 7 3 1 0 0 0 0 0 0 0 0 0 0 0 0 0 0 0 0 0 0 0 0 0 0 0 0 0 0 0 0 0 0 0
3 2 2 5 11 22 30 33 30 22 14 7 2 0 0 0 0 0 0 0 0 0 0 0 0 0 0 0 0 0 0 0 0 0 0 0 0 0 0 0 0 0 0
9 8 9 12 18 28 40 48 49 39 26 14 7 3 0 0 0 0 0 0 0 0 0 0 0 1 1 0 0 0 0 0 0 0 0 0 0 0 0 0 0 0 0
13 14 19 24 28 37 49 55 53 42 27 18 12 6 2 1 0 0 0 0 0 0 0 0 0 1 2 1 0 0 0 0 0 0 0 0 0 0 0 0 0 0 0
13 19 29 36 40 48 55 53 44 30 19 15 12 6 2 2 1 0 0 1 1 0 1 1 0 1 2 1 0 0 0 0 0 0 0 0 0 0 0 0 0 0 0
14 22 35 43 47 51 54 49 36 21 12 11 10 5 2 2 1 0 1 2 2 1 2 2 1 0 1 1 0 0 0 0 0 0 0 0 0 0 0 0 0 0 0
Wind_Speed
11 13 15 14 14 14 13 12 12 11 11 11 11 11 10 9 9 9 8 8 7 7 7 7 7 7 7 6 6 6 7 7 6 6 5 4 4 3 3 2 3 4 6
14 15 15 14 14 14 13 12 12 11 11 11 11 10 10 9 9 8 8 8 7 7 6 7 7 7 6 6 6 6 7 7 6 6 5 5 5 4 4 3 3 5 4
15 15 15 14 14 14 13 12 12 11 11 11 11 10 10 9 8 8 7 7 7 7 6 6 6 6 6 6 6 6 7 7 7 5 2 3 6 5 5 4 5 6 5
15 14 14 15 13 13 13 12 12 12 11 11 11 10 10 9 8 7 7 7 7 7 7 6 6 6 6 5 5 6 7 6 6 4 3 4 4 7 5 6 6 7 7
14 13 14 14 13 13 12 12 12 12 12 12 11 10 9 9 8 7 7 7 7 7 7 7 6 6 5 5 5 5 6 6 5 4 3 3 4 5 6 6 7 7 7
13 12 14 14 13 12 12 12 12 12 12 12 11 10 9 8 8 7 7 7 7 8 8 8 7 7 6 5 5 5 6 6 6 3 2 3 4 5 5 5 6 7 7
14 12 14 14 13 12 12 12 11 12 12 12 11 10 9 8 7 7 7 7 7 8 8 8 8 8 7 7 7 7 6 4 2 3 2 2 5 5 5 5 5 6 7
13 12 13 14 12 12 12 12 12 12 12 11 11 11 9 8 7 7 6 7 7 7 7 7 7 7 7 7 7 7 6 1 4 3 2 3 5 3 4 4 4 5 6
12 12 11 14 13 13 12 12 12 12 12 11 11 10 9 8 8 7 6 6 6 6 7 7 6 6 6 6 7 7 7 3 1 2 2 3 4 2 3 3 4 4 5
11 12 11 11 12 13 13 13 12 12 12 11 11 11 10 9 8 7 8 7 6 6 6 6 5 5 5 5 6 6 5 4 2 2 2 5 4 3 4 4 3 3 4
10 10 11 11 10 10 10 12 12 12 11 11 11 11 11 9 9 9 7 7 6 6 6 5 5 4 4 6 6 5 5 1 2 1 3 6 4 3 4 4 3 3 3
12 11 10 10 10 10 7 9 9 9 10 10 9 11 8 6 4 3 11 5 6 6 6 5 4 6 8 6 8 7 3 3 2 2 5 5 3 3 3 4 4 3 3
12 11 10 10 10 9 7 7 6 5 6 8 9 9 6 6 5 5 6 8 7 8 7 7 8 5 4 2 2 3 2 0 1 1 6 4 2 1 2 2 3 2 2
11 11 11 11 10 10 8 6 6 5 5 6 7 9 6 4 4 4 4 5 5 4 3 4 2 4 3 4 3 2 3 1 1 1 5 4 2 1 1 2 1 2 2
11 11 11 11 11 10 8 6 6 6 6 7 6 7 7 5 6 5 5 4 5 4 5 3 4 4 2 2 2 1 1 1 0 1 4 5 3 1 1 2 2 2 2
11 12 11 12 11 10 9 8 7 6 6 6 6 8 8 6 5 5 5 5 5 5 4 4 3 3 3 2 2 2 1 1 1 2 2 5 5 4 2 2 2 2 2
11 11 11 11 12 12 11 10 6 6 7 6 6 8 9 7 7 6 5 6 6 6 6 4 3 2 2 2 3 2 1 1 1 2 2 1 4 6 5 4 3 3 3
10 11 11 10 12 12 10 9 7 7 7 6 6 7 9 9 8 6 5 5 6 6 5 4 3 4 4 4 3 2 2 2 2 2 2 3 2 4 7 7 6 4 3
10 11 12 13 13 12 11 9 8 7 7 7 6 7 8 9 9 7 5 5 7 6 5 5 5 4 4 3 3 2 2 2 1 2 2 2 3 2 4 7 6 6 5
12 13 13 13 13 12 10 9 7 7 7 7 6 7 9 8 9 7 5 7 6 6 6 6 6 4 3 4 4 4 3 3 3 3 1 1 2 2 1 2 3 6 5
13 14 14 14 14 11 9 9 8 8 7 7 7 8 9 10 9 8 6 7 6 6 8 9 7 7 6 5 4 4 5 6 5 4 4 4 4 2 4 4 2 2 4
12 15 16 16 15 13 10 8 7 7 6 5 5 7 9 10 10 8 9 7 7 7 8 8 7 6 5 5 5 4 5 6 6 6 5 5 6 5 4 4 5 3 2
10 13 12 14 14 13 11 7 5 4 3 4 4 5 7 9 9 9 10 8 8 8 7 9 9 9 7 6 6 5 4 5 3 5 7 7 6 4 5 5 5 5 4
10 9 10 10 11 12 11 9 8 5 3 2 1 2 5 7 8 9 9 9 9 8 8 9 10 8 8 7 6 6 4 2 2 3 4 6 7 7 7 5 6 5 5
9 6 4 5 7 9 10 10 8 4 2 2 0 2 3 5 7 8 8 8 8 7 8 8 8 9 8 9 7 6 6 4 5 3 3 4 5 7 8 7 6 6 5
8 4 2 4 6 8 10 9 8 8 5 3 1 2 3 3 4 6 7 7 7 6 7 7 7 9 9 9 8 8 8 7 7 6 6 5 5 5 7 6 7 6 6
Wind_Direction
153 147 142 145 143 141 139 136 134 131 129 127 125 122 118 115 113 110 107 105 102 102 104 107 110 112 115 116 120 131 134 126 127 127 124 117 118 124 119 138 220 154 112
149 145 145 148 146 146 144 142 139 137 134 131 127 124 120 115 111 107 104 101 100 100 102 105 107 109 112 114 120 128 130 126 123 117 120 126 113 111 113 107 353 71 115
147 145 149 150 148 148 149 147 145 142 138 135 132 129 125 121 117 113 106 99 96 95 97 103 108 108 110 116 120 123 124 125 119 116 167 118 108 107 110 108 93 94 103
150 151 149 148 150 150 151 151 149 146 143 141 138 134 132 129 124 118 110 101 96 91 89 93 100 104 105 110 117 124 127 129 129 167 169 97 96 99 103 104 100 96 96
153 152 142 152 152 153 154 154 154 152 149 147 144 141 138 134 130 123 116 106 97 90 85 86 92 98 102 108 117 131 139 142 147 205 97 97 89 100 108 107 104 102 99
157 155 147 157 155 157 157 157 157 156 155 153 150 147 143 141 136 130 124 114 103 92 84 81 83 87 88 93 105 119 130 144 184 138 112 111 104 109 108 113 118 110 104
161 159 154 161 161 161 161 162 161 161 160 159 156 152 149 146 141 134 128 118 108 97 86 80 79 78 77 79 85 95 106 135 167 141 142 109 93 106 117 124 130 120 112
163 163 158 161 167 167 166 167 166 165 165 164 162 157 154 150 144 138 131 122 112 101 91 84 80 76 75 78 83 89 91 259 133 126 111 96 82 111 122 131 130 128 124
166 168 169 168 172 173 173 172 171 170 170 168 165 162 157 151 147 145 139 131 120 110 101 91 85 79 76 80 88 94 90 35 103 101 118 90 90 107 117 126 129 128 127
174 175 177 179 176 176 175 177 177 176 175 172 168 166 160 155 154 153 164 140 136 125 112 104 99 94 87 86 97 111 129 213 72 109 85 84 74 90 104 110 122 131 135
182 183 184 182 181 181 175 168 179 179 178 177 173 168 177 182 169 173 134 136 147 134 122 117 113 115 134 124 112 141 203 164 103 68 72 70 79 95 105 108 114 131 146
185 189 189 190 182 184 180 172 184 181 179 190 182 176 191 180 164 147 119 158 151 140 139 126 138 181 219 163 148 198 182 155 162 104 85 64 77 99 108 116 117 126 145
187 188 194 195 191 187 183 185 183 181 182 191 185 178 190 174 167 176 162 167 169 178 169 153 195 184 179 129 170 171 107 195 96 102 93 65 37 97 112 112 120 136 148
192 192 194 198 194 195 191 188 189 184 186 186 191 187 183 187 191 172 189 171 170 177 165 191 185 156 168 169 165 145 145 211 74 66 92 65 355 291 184 149 141 163 164
192 196 197 199 201 195 195 195 199 195 190 189 189 196 189 188 193 174 186 179 195 174 173 189 201 158 178 139 109 109 89 74 125 70 102 89 40 359 227 178 159 141 163
197 199 194 200 201 202 194 199 202 197 191 202 189 204 196 191 196 185 193 185 193 188 184 195 190 184 201 176 158 98 28 62 87 108 94 121 98 65 65 113 135 132 121
205 203 196 201 201 203 204 202 199 202 195 199 196 208 201 196 197 197 197 189 190 191 192 201 179 210 201 180 177 160 114 55 36 113 107 116 128 106 81 74 82 102 101
219 215 201 198 206 203 204 203 200 202 200 201 199 209 210 203 204 198 200 200 196 194 199 192 211 203 189 196 182 168 161 141 180 91 157 151 132 127 108 77 66 66 80
235 225 214 206 207 203 201 204 206 202 200 205 203 204 213 214 211 201 205 205 195 202 206 206 208 212 200 194 187 189 199 172 156 206 180 138 127 159 126 111 94 63 52
241 233 223 213 210 202 198 204 200 208 204 207 208 208 215 221 223 216 207 213 204 206 213 219 209 216 216 204 209 201 210 213 214 223 220 201 205 161 145 151 173 119 81
247 236 229 217 209 201 193 197 196 202 204 205 209 212 213 221 226 226 222 217 213 217 219 222 215 209 210 208 210 215 214 226 233 205 226 227 211 182 215 188 218 208 146
259 242 233 221 210 201 193 191 194 196 203 204 208 215 219 224 225 228 228 223 219 222 226 222 213 214 208 208 216 221 227 211 220 225 219 232 235 192 229 213 195 193 209
277 254 239 225 209 198 184 174 167 165 168 181 202 214 222 227 229 231 236 232 228 224 223 221 214 212 208 211 223 220 229 230 201 208 219 222 232 226 224 224 220 200 189
300 274 250 225 207 189 174 166 166 167 177 195 205 219 225 226 230 232 236 235 232 229 227 221 215 217 213 207 210 228 243 256 220 209 209 227 229 227 229 213 227 221 202
322 299 260 212 192 174 164 158 153 142 133 87 64 241 235 231 234 232 232 232 233 230 231 225 217 219 219 217 207 202 210 224 238 239 237 229 218 225 227 223 216 222 214
352 1 57 122 132 138 142 142 143 138 132 128 183 239 232 222 231 228 225 225 227 228 230 227 223 221 227 228 222 215 211 212 215 220 232 240 243 231 216 217 224 219 217